Hourly Data Report for September 11, 2017

All times are specified in Local Standard Time (LST). Add 1 hour to adjust for Daylight Saving Time where and when it is observed.

KUGAARUK CLIMATE
NUNAVUT

68°32'15.060" N
89°47'47.020" W
15.80 m
2303094
71407
NBB

Download Data

Hourly Data (September 2017)
Hourly Data Report for September 11, 2017
Temp Definition
°C
Dew Point Temp Definition
°C
Rel Hum Definition
%
Wind Dir Definition
10's deg

Wind Spd Definition
km/h
Visibility Definition
km
Stn Press Definition
kPa
Hmdx Definition


Wind Chill Definition


Weather Definition


TIME
00:00 2.4 -1.6 75 22 28   100.87     LegendNANA
01:00 2.4 -1.5 76 22 28   100.83     LegendNANA
02:00 1.8 -1.3 80 24 14   100.85     LegendNANA
03:00 2.3 -1.0 79 25 12   100.79     LegendNANA
04:00 2.2 -1.0 79 25 17   100.71     LegendNANA
05:00 2.6 -1.3 76 23 18   100.71     LegendNANA
06:00 2.6 -1.5 75 21 21   100.74     LegendNANA
07:00 2.8 -1.6 73 23 16   100.74     LegendNANA
08:00 3.7 -2.0 67 24 15   100.72     LegendNANA
09:00 3.6 -2.4 65 26 13   100.69     LegendNANA
10:00 3.9 -1.9 66 25 11   100.70     LegendNANA
11:00 4.0 -2.0 65 23 8   100.70     LegendNANA
12:00 4.3 -1.9 64 26 6   100.71     LegendNANA
13:00 4.7 0.8 76 1 15   100.74     LegendNANA
14:00 3.5 0.8 82 6 20   100.78     LegendNANA
15:00 1.7 -0.6 85 3 22   100.82     LegendNANA
16:00 1.3 -0.5 88 4 15   100.86     LegendNANA
17:00 0.5 -1.2 88 2 22   100.87     LegendNANA
18:00 -1.0 -2.5 90 4 20   100.92   -7 LegendNANA
19:00 -1.4 -2.5 92 5 25   100.92   -8 LegendNANA
20:00 -1.4 -3.0 89 5 18   100.91   -7 LegendNANA
21:00 -1.6 -2.9 91 5 17   100.92   -7 LegendNANA
22:00 -1.5 -2.6 92 3 11   100.96   -5 LegendNANA
23:00 -1.1 -2.0 94 4 12   100.98   -5 LegendNANA

Notes on Data Quality.

Legend

  • E = Estimated
  • M = Missing
  • NA = Not Available
  • ‡ = Partner data that is not subject to review by the National Climate Archives
Date modified: